Change the Weather History Date:

Saturday, April 6, 2013

  Actual Average Record
Temperature  
Mean Temperature 32 °F -  
Max Temperature 35 °F 46 °F 120 °F (1999)
Min Temperature 30 °F 26 °F 10 °F (1997)
Degree Days  
Heating Degree Days 32    
Moisture  
Dew Point 29 °F    
Average Humidity 83    
Maximum Humidity 87    
Minimum Humidity 80    
Precipitation  
Precipitation 0.02 in - - ()
Sea Level Pressure  
Sea Level Pressure 29.73 in    
Wind  
Wind Speed 9 mph (NE)    
Max Wind Speed 14 mph    
Max Gust Speed 18 mph    
Visibility 9 miles    
Events Rain , Snow    
Averages and records for this station are not official NWS values.
T = Trace of Precipitation, MM = Missing Value Source: NWS Daily Summary

Daily Weather History Graph

Daily Weather History Graph

Search for Another Location

Airport or City:

Trip Planner

Search our weather history database for the weather conditions in past years. The results will help you decide how hot, cold, wet, or windy it might be!

Date:

Astronomy

Apr. 06, 2013 Rise Set
Actual Time 6:46 AM CDT 7:53 PM CDT
Civil Twilight 6:15 AM CDT 8:24 PM CDT
Nautical Twilight 5:38 AM CDT 9:02 PM CDT
Astronomical Twilight 4:59 AM CDT 9:41 PM CDT
Moon 4:44 AM CDT (4/6) 4:11 PM CDT (4/6)
Length of Visible Light 14h 09m
Length of Day
13h 07m
Waning Crescent, 15% of the Moon is Illuminated
Apr 6
Waning Crescent
Apr 10
New
Apr 18
First Quarter
Apr 25
Full
May 2
Last Quarter

Hourly Weather History & Observations

Time (CDT) Temp. Windchill Dew Point Humidity Pressure Visibility Wind Dir Wind Speed Gust Speed Precip Events Conditions
12:13 AM 30.2 °F 19.8 °F 26.6 °F 86% 29.90 in 10.0 mi ESE 13.8 mph - N/A   Mostly Cloudy
12:33 AM 30.2 °F 20.2 °F 26.6 °F 86% 29.89 in 10.0 mi ESE 12.7 mph 17.3 mph N/A   Overcast
12:53 AM 30.2 °F 20.8 °F 26.6 °F 86% 29.89 in 10.0 mi ESE 11.5 mph 18.4 mph N/A   Overcast
1:12 AM 30.2 °F 20.2 °F 26.6 °F 86% 29.87 in 10.0 mi ESE 12.7 mph - N/A   Overcast
1:33 AM 30.2 °F 21.3 °F 26.6 °F 86% 29.87 in 10.0 mi ESE 10.4 mph 17.3 mph N/A   Overcast
1:53 AM 30.2 °F 20.2 °F 26.6 °F 86% 29.85 in 10.0 mi ESE 12.7 mph 17.3 mph N/A   Overcast
2:12 AM 32.0 °F 23.6 °F 26.6 °F 80% 29.84 in 10.0 mi ESE 10.4 mph 17.3 mph N/A   Overcast
2:33 AM 32.0 °F 23.0 °F 26.6 °F 80% 29.84 in 10.0 mi ESE 11.5 mph - N/A   Overcast
2:52 AM 32.0 °F 23.6 °F 26.6 °F 80% 29.83 in 10.0 mi ESE 10.4 mph 16.1 mph N/A   Overcast
3:13 AM 32.0 °F 23.6 °F 28.4 °F 87% 29.81 in 10.0 mi ESE 10.4 mph 17.3 mph N/A   Overcast
3:33 AM 32.0 °F 23.6 °F 28.4 °F 87% 29.80 in 10.0 mi ESE 10.4 mph - N/A   Overcast
3:53 AM 32.0 °F 24.8 °F 26.6 °F 80% 29.80 in 10.0 mi ESE 8.1 mph - N/A   Overcast
4:12 AM 32.0 °F 24.2 °F 28.4 °F 87% 29.78 in 10.0 mi ESE 9.2 mph - N/A   Overcast
4:32 AM 32.0 °F 23.6 °F 26.6 °F 80% 29.77 in 10.0 mi ESE 10.4 mph - N/A   Overcast
4:52 AM 32.0 °F 23.6 °F 26.6 °F 80% 29.76 in 10.0 mi ESE 10.4 mph - N/A   Scattered Clouds
5:12 AM 32.0 °F 25.6 °F 26.6 °F 80% 29.76 in 10.0 mi ESE 6.9 mph - N/A   Clear
5:33 AM 32.0 °F 25.6 °F 26.6 °F 80% 29.75 in 10.0 mi East 6.9 mph - N/A   Scattered Clouds
5:52 AM 32.0 °F 24.8 °F 28.4 °F 87% 29.75 in 10.0 mi ESE 8.1 mph - N/A   Scattered Clouds
6:13 AM 33.8 °F 26.4 °F 28.4 °F 81% 29.73 in 10.0 mi ESE 9.2 mph - N/A   Scattered Clouds
6:33 AM 33.8 °F 25.8 °F 28.4 °F 81% 29.72 in 10.0 mi ESE 10.4 mph - N/A   Mostly Cloudy
6:52 AM 33.8 °F 26.4 °F 28.4 °F 81% 29.72 in 10.0 mi East 9.2 mph - N/A   Overcast
7:12 AM 33.8 °F 26.4 °F 28.4 °F 81% 29.71 in 10.0 mi East 9.2 mph - N/A   Overcast
7:32 AM 33.8 °F 26.4 °F 28.4 °F 81% 29.71 in 10.0 mi East 9.2 mph - N/A   Mostly Cloudy
7:52 AM 33.8 °F 26.4 °F 28.4 °F 81% 29.71 in 10.0 mi East 9.2 mph - N/A Rain Light Rain
8:13 AM 33.8 °F 26.4 °F 28.4 °F 81% 29.70 in 7.0 mi East 9.2 mph - N/A   Drizzle
8:33 AM 33.8 °F 27.0 °F 30.2 °F 87% 29.70 in 10.0 mi East 8.1 mph - N/A   Scattered Clouds
8:53 AM 33.8 °F 26.4 °F 28.4 °F 81% 29.69 in 10.0 mi East 9.2 mph - N/A Rain Light Rain
9:12 AM 33.8 °F 27.0 °F 30.2 °F 87% 29.69 in 10.0 mi East 8.1 mph - N/A   Mostly Cloudy
9:30 AM 33.8 °F 27.0 °F 30.2 °F 87% 29.68 in 10.0 mi East 8.1 mph - N/A   Overcast
9:53 AM 33.8 °F 25.3 °F 28.4 °F 81% 29.67 in 10.0 mi East 11.5 mph - N/A   Overcast
10:12 AM 33.8 °F 26.4 °F 30.2 °F 87% 29.66 in 10.0 mi East 9.2 mph - N/A   Overcast
10:32 AM 33.8 °F 27.0 °F 30.2 °F 87% 29.66 in 10.0 mi East 8.1 mph - N/A   Overcast
10:53 AM 33.8 °F 26.4 °F 30.2 °F 87% 29.65 in 10.0 mi East 9.2 mph - N/A   Overcast
11:13 AM 33.8 °F 27.0 °F 30.2 °F 87% 29.65 in 10.0 mi ESE 8.1 mph - N/A   Overcast
11:33 AM 33.8 °F 28.6 °F 28.4 °F 81% 29.66 in 10.0 mi East 5.8 mph - N/A   Overcast
11:52 AM 33.8 °F 28.6 °F 30.2 °F 87% 29.66 in 10.0 mi East 5.8 mph - N/A   Overcast
12:12 PM 33.8 °F 29.6 °F 30.2 °F 87% 29.65 in 10.0 mi East 4.6 mph - N/A   Overcast
12:32 PM 33.8 °F 30.8 °F 28.4 °F 81% 29.65 in 3.0 mi East 3.5 mph - N/A Snow Light Snow
12:53 PM 33.8 °F 30.8 °F 30.2 °F 87% 29.64 in 2.0 mi ENE 3.5 mph - 0.01 in Snow Light Snow
1:13 PM 33.8 °F 30.8 °F 30.2 °F 87% 29.65 in 4.0 mi North 3.5 mph - 0.01 in Rain Rain
1:33 PM 33.8 °F 30.8 °F 30.2 °F 87% 29.64 in 7.0 mi NNE 3.5 mph - 0.01 in   Light Drizzle
1:52 PM 33.8 °F 30.8 °F 30.2 °F 87% 29.64 in 7.0 mi NNE 3.5 mph - N/A   Overcast
2:13 PM 33.8 °F - 30.2 °F 87% 29.64 in 7.0 mi Calm Calm - N/A   Overcast
2:32 PM 33.8 °F 30.8 °F 30.2 °F 87% 29.64 in 7.0 mi North 3.5 mph - N/A Snow Light Snow
2:53 PM 35.6 °F - 30.2 °F 81% 29.65 in 7.0 mi Calm Calm - N/A Snow Light Snow
3:13 PM 35.6 °F 32.8 °F 30.2 °F 81% 29.65 in 7.0 mi NNW 3.5 mph - N/A Snow Light Snow
3:33 PM 35.6 °F 31.7 °F 30.2 °F 81% 29.65 in 7.0 mi NNW 4.6 mph - N/A Rain Light Rain
3:53 PM 35.6 °F 31.7 °F 30.2 °F 81% 29.65 in 10.0 mi North 4.6 mph - N/A   Overcast
4:12 PM 35.6 °F 29.9 °F 30.2 °F 81% 29.65 in 10.0 mi NNW 6.9 mph - N/A   Overcast
4:33 PM 35.6 °F 28.6 °F 30.2 °F 81% 29.65 in 10.0 mi North 9.2 mph - N/A   Overcast
4:53 PM 35.6 °F 29.2 °F 30.2 °F 81% 29.66 in 10.0 mi NNW 8.1 mph - N/A   Overcast
5:12 PM 35.6 °F 29.9 °F 30.2 °F 81% 29.67 in 10.0 mi NNW 6.9 mph - N/A   Overcast
5:32 PM 35.6 °F 29.2 °F 30.2 °F 81% 29.68 in 10.0 mi NNW 8.1 mph - N/A   Overcast
5:53 PM 35.6 °F 29.9 °F 30.2 °F 81% 29.69 in 10.0 mi NNW 6.9 mph - N/A   Overcast
6:12 PM 35.6 °F 28.0 °F 30.2 °F 81% 29.69 in 10.0 mi NW 10.4 mph - N/A   Overcast
6:33 PM 35.6 °F 28.6 °F 30.2 °F 81% 29.71 in 10.0 mi NNW 9.2 mph 16.1 mph N/A   Overcast
6:53 PM 35.6 °F 30.7 °F 30.2 °F 81% 29.71 in 10.0 mi NNW 5.8 mph 16.1 mph N/A   Overcast
7:13 PM 35.6 °F 28.6 °F 30.2 °F 81% 29.71 in 10.0 mi NNW 9.2 mph - N/A   Overcast
7:32 PM 35.6 °F 30.7 °F 30.2 °F 81% 29.72 in 10.0 mi NNW 5.8 mph - N/A   Overcast
7:53 PM 33.8 °F 25.8 °F 30.2 °F 87% 29.72 in 7.0 mi NNW 10.4 mph - N/A   Overcast
8:13 PM 33.8 °F 25.3 °F 30.2 °F 87% 29.73 in 7.0 mi NNW 11.5 mph 16.1 mph N/A   Overcast
8:33 PM 33.8 °F 27.0 °F 30.2 °F 87% 29.74 in 7.0 mi NNW 8.1 mph - N/A   Overcast
8:53 PM 33.8 °F 27.7 °F 30.2 °F 87% 29.74 in 10.0 mi NNW 6.9 mph - N/A   Overcast
9:13 PM 33.8 °F 27.7 °F 30.2 °F 87% 29.75 in 10.0 mi NNW 6.9 mph - N/A   Overcast
9:33 PM 33.8 °F 27.7 °F 30.2 °F 87% 29.76 in 10.0 mi NNW 6.9 mph - N/A   Overcast
9:53 PM 33.8 °F 27.7 °F 28.4 °F 81% 29.76 in 10.0 mi NNW 6.9 mph - N/A   Overcast
10:12 PM 33.8 °F 27.7 °F 28.4 °F 81% 29.76 in 10.0 mi NNW 6.9 mph - N/A   Overcast
10:33 PM 33.8 °F 29.6 °F 28.4 °F 81% 29.77 in 10.0 mi NNW 4.6 mph - N/A   Overcast
10:53 PM 33.8 °F 27.7 °F 28.4 °F 81% 29.78 in 10.0 mi NNW 6.9 mph - N/A   Overcast
11:12 PM 33.8 °F 27.0 °F 30.2 °F 87% 29.78 in 10.0 mi NNW 8.1 mph - N/A   Overcast
11:32 PM 33.8 °F 27.0 °F 28.4 °F 81% 29.78 in 10.0 mi NNW 8.1 mph - N/A   Overcast
11:53 PM 33.8 °F 27.0 °F 28.4 °F 81% 29.79 in 10.0 mi NW 8.1 mph - N/A   Overcast